Weather History for Sarasota, FL

Change the Weather History Date:

Wednesday, May 2, 2012

  Actual Average Record
Temperature  
Mean Temperature 82 °F 74 °F  
Max Temperature 92 °F 83 °F 92 °F (2010)
Min Temperature 71 °F 64 °F 49 °F (1921)
Degree Days  
Heating Degree Days 0 0  
Month to date heating degree days 0 0  
Since 1 July heating degree days 208 477  
Cooling Degree Days 17 9  
Month to date cooling degree days 33 18  
Year to date cooling degree days 719 415  
Growing Degree Days 30 (Base 50)    
Moisture  
Dew Point 68 °F    
Average Humidity 71    
Maximum Humidity 93    
Minimum Humidity 38    
Precipitation  
Precipitation 0.00 in 0.06 in 3.38 in (2014)
Month to date precipitation 0.03 0.12  
Year to date precipitation 5.65 11.61  
Sea Level Pressure  
Sea Level Pressure 30.03 in    
Wind  
Wind Speed 10 mph (ESE)    
Max Wind Speed 21 mph    
Max Gust Speed 25 mph    
Visibility 10 miles    
Events      
T = Trace of Precipitation, MM = Missing Value Source: NWS Daily Summary

Daily Weather History Graph

Daily Weather History Graph

Search for Another Location

Airport:

Trip Planner

Search our weather history database for the weather conditions in past years. The results will help you decide how hot, cold, wet, or windy it might be!

Date:

Astronomy

May. 02, 2012 Rise Set
Actual Time 6:50 AM EDT 8:04 PM EDT
Civil Twilight 6:25 AM EDT 8:29 PM EDT
Nautical Twilight 5:56 AM EDT 8:58 PM EDT
Astronomical Twilight 5:25 AM EDT 9:29 PM EDT
Moon 4:33 PM EDT (5/2) 3:58 AM EDT (5/2)
Length of Visible Light 14h 04m
Length of Day
13h 14m
Waxing Gibbous, 83% of the Moon is Illuminated
May 2
Waxing Gibbous
May 5
Full
May 12
Last Quarter
May 20
New
May 28
First Quarter

Hourly Weather History & Observations

Time (EDT) Temp. Heat Index Dew Point Humidity Pressure Visibility Wind Dir Wind Speed Gust Speed Precip Events Conditions
12:53 AM 73.9 °F - 68.0 °F 82% 30.05 in 10.0 mi East 10.4 mph - N/A   Overcast
1:53 AM 73.0 °F - 68.0 °F 84% 30.03 in 10.0 mi East 9.2 mph - N/A   Overcast
2:53 AM 73.0 °F - 68.0 °F 84% 30.01 in 10.0 mi East 8.1 mph - N/A   Overcast
3:53 AM 72.0 °F - 68.0 °F 87% 30.01 in 10.0 mi East 6.9 mph - N/A   Clear
4:53 AM 72.0 °F - 69.1 °F 91% 30.01 in 10.0 mi East 8.1 mph - N/A   Clear
5:53 AM 72.0 °F - 69.1 °F 91% 30.02 in 10.0 mi East 5.8 mph - N/A   Clear
6:53 AM 71.1 °F - 68.0 °F 90% 30.04 in 10.0 mi East 6.9 mph - N/A   Clear
7:53 AM 72.0 °F - 69.1 °F 91% 30.05 in 10.0 mi East 8.1 mph - N/A   Partly Cloudy
8:01 AM 73.4 °F - 69.8 °F 88% 30.05 in 10.0 mi East 9.2 mph - N/A   Partly Cloudy
8:53 AM 75.9 °F - 69.1 °F 79% 30.06 in 10.0 mi ESE 11.5 mph - N/A   Partly Cloudy
9:53 AM 80.1 °F 82.7 °F 68.0 °F 67% 30.06 in 10.0 mi ESE 15.0 mph 19.6 mph N/A   Scattered Clouds
10:53 AM 82.9 °F 85.4 °F 66.9 °F 58% 30.06 in 10.0 mi East 16.1 mph 21.9 mph N/A   Partly Cloudy
11:53 AM 84.9 °F 86.6 °F 64.9 °F 51% 30.06 in 10.0 mi ESE 17.3 mph 24.2 mph N/A   Scattered Clouds
12:53 PM 88.0 °F 89.3 °F 64.0 °F 45% 30.05 in 10.0 mi ESE 18.4 mph 23.0 mph N/A   Partly Cloudy
1:53 PM 90.0 °F 90.6 °F 63.0 °F 40% 30.04 in 10.0 mi ESE 13.8 mph - N/A   Mostly Cloudy
2:53 PM 90.0 °F 90.0 °F 61.0 °F 38% 30.03 in 10.0 mi ESE 11.5 mph 20.7 mph N/A   Mostly Cloudy
3:53 PM 84.9 °F 88.8 °F 69.1 °F 59% 30.01 in 10.0 mi WSW 9.2 mph - N/A   Partly Cloudy
4:53 PM 84.9 °F 88.2 °F 68.0 °F 57% 30.00 in 10.0 mi WSW 6.9 mph - N/A   Mostly Cloudy
5:53 PM 82.9 °F 86.5 °F 69.1 °F 63% 29.99 in 10.0 mi SW 9.2 mph - N/A   Scattered Clouds
6:53 PM 81.0 °F 84.4 °F 70.0 °F 69% 30.00 in 10.0 mi WSW 6.9 mph - N/A   Scattered Clouds
7:53 PM 80.1 °F 83.2 °F 70.0 °F 71% 30.00 in 10.0 mi Calm Calm - N/A   Clear
8:53 PM 78.8 °F - 69.8 °F 74% 30.02 in 10.0 mi Calm Calm - N/A   Clear
9:53 PM 75.9 °F - 69.1 °F 79% 30.05 in 10.0 mi East 4.6 mph - N/A   Clear
10:53 PM 78.1 °F - 66.0 °F 66% 30.06 in 10.0 mi ESE 15.0 mph - N/A   Clear
11:53 PM 75.9 °F - 66.0 °F 71% 30.09 in 10.0 mi ESE 11.5 mph - N/A   Clear